Location: Springfield
(37.2150°N, 93.2980°W)
Time: 07:08:41
(UTC-05:00)

Cosmos 1844 Rocket - Pass Details

Date: 19 April 2018
Orbit: 823 x 846 km, 71.0° (Epoch: 23 May)

Event Time Altitude Azimuth Distance (km) Brightness Sun altitude
Rises 21:10:18 0° 336° (NNW) 3,412 6.7 -15.3°
Reaches altitude 10° 21:12:45 10° 336° (NNW) 2,472 5.9 -15.8°
Maximum altitude 21:18:26 82° 250° (WSW) 856 2.7 -16.8°
Enters shadow 21:22:45 18° 164° (SSE) 1,955 4.2 -17.5°
